Hourly Weather Roundup
Issued by NWS Central Illinois

Home | Current Version | Previous Version | Text Only | Print | Product List | Glossary On
Versions: 1 2 3 4 5 6 7 8 9 10 11 12 13 14 15 16 17 18 19 20 21 22 23 24 25 26 27 28 29 30 31 32 33 34 35 36 37 38 39 40 41 42 43 44 45 46 47 48 49 50
000
NZUS43 KILX 240310
HWRILX

AREA WEATHER ROUNDUP
NATIONAL WEATHER SERVICE, LINCOLN IL
1000 PM CDT TUE AUG 23 2016


CITY           SKY/WX    TMP DP  RH WIND       PRES   REMARKS
BLOOMINGTON    PTCLDY    70  66  87 S13       30.11F
CHAMPAIGN      CLOUDY    69  66  90 SE7       30.13F
DANVILLE       MOCLDY    68  66  92 SE3       30.13S
DECATUR        PTCLDY    72  65  78 S8        30.12S
EFFINGHAM      CLOUDY    70  69  96 E5        30.16S
FLORA          CLOUDY    72  69  88 SE6       30.14S
GALESBURG      CLOUDY    71  67  88 S9        30.05R
JACKSONVILLE   CLEAR     70  67  90 SE8       30.08S
LACON          CLOUDY    71  65  80 S7        30.06F
LAWRENCEVILLE  PTCLDY    71  66  84 SE5       30.16S
LITCHFIELD     CLOUDY    71  66  84 SE9       30.11F
$$


CITY           SKY/WX    TMP DP  RH WIND       PRES   REMARKS
LINCOLN        CLEAR     71  68  89 S7        30.10R
MACOMB         CLOUDY    72  69  91 S9        30.07S
MATTOON        CLOUDY    71  65  81 SE6       30.14S
MT CARMEL AP   CLOUDY    70  66  87 SE5       30.15S
OLNEY-NOBLE AP CLOUDY    72  68  88 SE3       30.16S
PARIS          CLOUDY    68  66  93 CALM      30.16S
PEORIA         CLOUDY    73  67  81 S15G22    30.08S
PONTIAC        MOCLDY    72  69  90 SE6       30.10F
RANTOUL        MOCLDY    71  67  87 SE6       30.13F
ROBINSON       CLOUDY    69  65  86 SE5       30.16S
SPRINGFIELD    CLEAR     73  67  81 S9        30.09S
TAYLORVILLE    MOCLDY    70  67  90 S9        30.11S
$$

...REGIONAL REPORTS...


CITY           SKY/WX    TMP DP  RH WIND       PRES   REMARKS
CHICAGO O`HARE MOCLDY    74  62  66 S13       30.10S
KANKAKEE       CLOUDY    71  65  81 SE6       30.12F
MOLINE         CLOUDY    74  68  81 S10G17    30.03R
MOUNT STERLING CLOUDY    70  68  95 S9        30.05F
MOUNT VERNON   CLOUDY    73  64  73 E3        30.14S
PITTSFIELD     CLEAR     71  69  95 SE7       30.08S
QUINCY         CLOUDY    73  72  96 S15       30.04S
ROCKFORD       CLOUDY    73  66  78 S9        30.07S
$$


CITY           SKY/WX    TMP DP  RH WIND       PRES   REMARKS
BURLINGTON     CLOUDY    72  70  93 S14       30.02S
CEDAR RAPIDS   CLOUDY    73  72  96 S13       29.97R
DES MOINES     MOCLDY    77  73  87 S14       29.89S
KIRKSVILLE     CLEAR     74  71  91 S9        29.99F
OTTUMWA        CLOUDY    74  70  87 S14G21    29.96R
ST LOUIS       MOCLDY    76  70  82 SE9       30.09F
$$


CITY           SKY/WX    TMP DP  RH WIND       PRES   REMARKS
TERRE HAUTE    CLOUDY    71  65  81 SE5       30.17S
EVANSVILLE     CLOUDY    75  66  73 CALM      30.17R
INDIANAPOLIS   CLOUDY    72  63  73 SE7       30.18S
LAFAYETTE      CLOUDY    71  64  78 SE5       30.15F
MADISON        CLOUDY    73  63  70 S15       30.03F
MILWAUKEE      PTCLDY    73  60  63 S9        30.08F
$$





USA.gov is the U.S. government's official web portal to all federal, state and local government web resources and services.